www.pogodaiklimat.ru
ПОГОДА в Аллентауне
Время
и дата
10:35 28.09
10:55 28.09
11:15 28.09
11:35 28.09
11:55 28.09
12:15 28.09
12:35 28.09
12:55 28.09
13:15 28.09
13:35 28.09
13:55 28.09
14:15 28.09
14:35 28.09
14:55 28.09
15:15 28.09
15:35 28.09
15:55 28.09
16:15 28.09
16:35 28.09
16:55 28.09
17:15 28.09
17:35 28.09
17:55 28.09
18:15 28.09
18:35 28.09
18:55 28.09
19:15 28.09
19:35 28.09
19:55 28.09
20:15 28.09
20:35 28.09
20:55 28.09
21:15 28.09
21:35 28.09
21:55 28.09
22:15 28.09
22:35 28.09
22:55 28.09
23:15 28.09
23:35 28.09
23:55 28.09
00:15 29.09
00:35 29.09
00:55 29.09
01:15 29.09
01:35 29.09
01:55 29.09
02:15 29.09
Ветер
(напр.,м/с)
Видим. Явления Облачность Т
(С)
Тd
(С)
f
(%)
Тe
(С)
Тes
(С)
Комфортность P
(гПа)
Po
(гПа)
Тmin
(С)
Tmax
(С)
R
(мм)
R24
(мм)
S
(см)
З 3 16 км 8/8 900 м +16.0 +10.0 68 +16 +17 1006.5
СЗ 3 16 км 8/8 900 м +17.0 +10.0 63 +17 +18 1006.5
С 4 16 км 8/8 960 м +17.0 +10.0 63 +17 +18 1006.5
СЗ 3 16 км 8/8 1020 м +18.0 +10.0 59 +18 +20 1006.5
СЗ 3 16 км 5/5 1200 м +18.0 +10.0 59 +18 +23 1006.5
СЗ 3 16 км 8/8 1260 м +18.0 +10.0 59 +18 +20 1006.5
СЗ 4 16 км 8/8 1260 м +18.0 +10.0 59 +18 +19 1006.2
З 2 16 км 8/8 1350 м +19.0 +9.0 52 +20 +23 1006.2
С 5 16 км 8/8 1350 м +18.0 +9.0 56 +18 +19 1006.2
СЗ 4 16 км 8/8 1350 м +20.0 +10.0 53 +21 +23 комфорт 1006.2
СЗ 3 16 км 10/10 1410 м +18.0 +10.0 59 +18 +18 1006.2
штиль 0 16 км 10/10 1800 м +19.0 +9.0 52 +20 +20 1006.2
СЗ 2 16 км 8/8 1470 м +18.0 +10.0 59 +19 +20 1006.2
СЗ 3 16 км 8/8 1470 м +18.0 +10.0 59 +18 +20 1006.5
СЗ 2 16 км 10/5 1500 m
[Ac]
+18.0 +10.0 59 +19 +19 1006.5
СЗ 2 16 км 10/0 2250 m
[Ac]
+18.0 +10.0 59 +19 +20 1006.5
З 3 16 км 10/0 2250 m
[Ac]
+19.0 +10.0 56 +20 +21 1006.5
З 3 16 км 10/0 2250 m
[Ac]
+19.0 +10.0 56 +20 +21 1006.9
СЗ 5
{7}
16 км 10/8 1440 m
[Ac]
+18.0 +10.0 59 +18 +18 1007.2
СЗ 3 16 км 10/8 1380 m
[Ac]
+18.0 +10.0 59 +18 +18 1007.5
СЗ 4 16 км 10/8 1440 m
[Ac]
+18.0 +10.0 59 +18 +18 1007.5
СЗ 4 16 км 10/5 1380 m
[Ac]
+17.0 +10.0 63 +17 +17 1007.9
СЗ 3
{8}
16 км 8/5 1650 m
[Ac]
+17.0 +9.0 59 +17 +17 1008.5
СЗ 3 16 км 8/0 2550 m
[Ac]
+16.0 +10.0 68 +16 +16 1008.5
СЗ 3 16 км 8/0 2250 m
[Ac]
+16.0 +10.0 68 +16 +16 1008.9
С 2 16 км 10/0 2250 m
[Ac]
+16.0 +10.0 68 +16 +16 1009.2
СЗ 3 16 км 10/5 1650 m
[Ac]
+16.0 +10.0 68 +16 +16 1009.5
С 3 16 км 10/5 1650 m
[Ac]
+16.0 +10.0 68 +16 +16 1009.9
С 3 16 км 10/5 1650 m
[Ac]
+16.0 +10.0 68 +16 +16 1010.2
С 3 16 км 10/5 1650 m
[Ac]
+15.0 +10.0 72 +14 +14 1010.2
СЗ 4 16 км 10/8 1650 m
[Ac]
+15.0 +10.0 72 +14 +14 1010.5
С 2 16 км 10/10 1950 м +15.0 +10.0 72 +15 +15 1010.5
СЗ 3 16 км 8/8 1950 м +14.0 +10.0 77 +13 +13 1010.9
С 2 16 км 10/10 1950 м +14.0 +10.0 77 +14 +14 1010.9
С 2 16 км 5/5 1950 м +13.0 +10.0 82 +12 +12 1011.2
С 2 16 км ясно +13.0 +10.0 82 +12 +12 1011.2
С 2 16 км ясно +13.0 +9.0 77 +12 +12 1011.2
С 3 16 км ясно +12.0 +9.0 82 +10 +10 1011.2
СЗ 2 16 км ясно +12.0 +9.0 82 +11 +11 1011.5
СЗ 2 16 км ясно +12.0 +8.0 76 +11 +11 1011.5
штиль 0 16 км ясно +12.0 +8.0 76 +12 +12 1011.9
СЗ 2 16 км ясно +12.0 +8.0 76 +11 +11 1011.9
СЗ 2 16 км ясно +12.0 +8.0 76 +11 +11 1011.9
штиль 0 16 км ясно +12.0 +8.0 76 +12 +12 1012.2
штиль 0 16 км ясно +11.0 +8.0 82 +10 +10 1012.2
штиль 0 16 км ясно +11.0 +8.0 82 +10 +10 1012.2
штиль 0 16 км ясно +10.0 +8.0 87 +9 +9 1012.2
штиль 0 16 км ясно +10.0 +8.0 87 +9 +9 1012.2
Местоположение метеостанции Allentown Queen City Municipal Airport: широта 40.5700 долгота -75.4880 высота над уровнем моря 122 м.
В архиве по умолчанию представлена погода в Аллентауне за последние 1-2 суток. Обновление информации о фактической погоде в базе происходит ежечасно! Архивные данные за месяц целиком и за предыдущие месяцы Вы можете получить, выбрав интересующий диапазон дат из раскрывающегося списка и нажав кнопку "Ввод!".
Внимание! Архив погоды МЕТАР в базе сайта по станциям, не включенным в климатический монитор, хранится не более 60 дней. Нет смысла пытаться выбрать более раннюю дату.
*Определитесь, кто Вы:
Внимание! Время в таблицах - местное (без учета летнего времени). Для получения всемирного времени необходимо вычесть поправку, которая равна -5 ч.
Смотрите также архив погоды в соседних городах и на ближайших метеорологических станциях:
Партнеры нашего сайта:      
Пояснения к столбцам:
  • Ветер - указаны скорость ветра в м/с - средняя за 10 мин, порывы в срок и между сроками (в фигурных скобках) и направление, откуда дует ветер: С - северный,
  • СВ - северо-восточный, В - восточный, ЮВ - юго-восточный, Ю - южный, ЮЗ - юго-западный, З - западный, СЗ - северо-западный.
  • Видимость - горизонтальная дальность видимости в метрах или километрах. При видимости от 1 до 10 км при отсутствии осадков обычно наблюдается дымка, при ухудшении видимости до 1 км и менее - туман. В сухую погоду видимость может ухудшаться дымом, пылью или мглою.
  • Явления - указаны атмосферные явления, наблюдавшиеся в срок или в последний час перед сроком; фигурными скобками обозначены явления, наблюдавшиеся между сроками (за 1-3 часа до срока); квадратными скобками обозначены град или гололедные отложения с указанием их диаметра в мм.
  • Облачность - указаны через наклонную черту общая и нижняя облачность в баллах и высота нижней границы облаков в метрах; квадратными скобками обозначены формы облаков: Ci - перистые, Cs - перисто-слоистые, Cc - перисто-кучевые, Ac - высококучевые, As - высокослоистые, Sc - слоисто-кучевые, Ns - слоисто-дождевые, Cu - кучевые, Cb - кучево-дождевые. Подробнее классификацию облаков см. в Атласе облаков (PDF).
  • T - Температура воздуха - температура, измеренная на высоте 2 м над землей.
  • Td - Температура точки росы - температура, при понижении до которой содержащийся в воздухе водяной пар достигнет насыщения.
  • f - Относительная влажность воздуха - влажноcть воздуха, измеренная на высоте 2 м над землей.
  • Te - Эффективная температура - температура, которую ощущает одетый по сезону человек в тени. Характеристика душности погоды. При расчете учитывается влияние влажности воздуха и скорости ветра на теплоощущения человека.
  • Tes - Эффективная температура на солнце - температура, которую ощущает человек, с поправкой на солнечный нагрев. Характеристика знойности погоды. Зависит от высоты солнца над горизонтом, облачности и скорости ветра. Ночью, в пасмурную погоду, а также при ветре 12 м/с и более поправка равна нулю.
  • P - Атмосферное давление - приведенное к уровню моря атмосферное давление.
  • Po - Атмосферное давление - измеренное на уровне метеостанции атмосферное давление.
  • Tmin - Минимальная температура - минимум температуры воздуха на высоте 2 м над землей.
  • Tmax - Максимальная температура - максимум температуры воздуха на высоте 2 м над землей.
  • R - Количество осадков - Количество выпавших осадков за период времени, мм. При наведении курсора мыши на число - период времени, за который выпало указанное количество осадков.
  • R24 - Количество осадков - Количество выпавших осадков за 24 часа, мм.
  • S - Снежный покров - Высота снежного покрова, см. При наведении курсора мыши на число - состояние снежного покрова и степень покрытия местности в баллах.